TimeCST,TemperatureF,Dew PointF,Humidity,Sea Level PressureIn,VisibilityMPH,Wind Direction,Wind SpeedMPH,Gust SpeedMPH,PrecipitationIn,Events,Conditions,WindDirDegrees,DateUTC
12:01 AM,66.0,62.1,87,30.08,10.0,SSW,3.5,-,N/A,,Overcast,200,2014-02-19 06:01:00
12:15 AM,66.0,62.1,87,30.08,10.0,Calm,Calm,-,N/A,,Mostly Cloudy,0,2014-02-19 06:15:00
12:31 AM,64.9,62.1,90,30.07,10.0,SSE,4.6,-,N/A,,Scattered Clouds,160,2014-02-19 06:31:00
12:53 AM,64.0,62.1,93,30.06,10.0,South,5.8,-,N/A,,Mostly Cloudy,180,2014-02-19 06:53:00
1:03 AM,63.0,61.0,93,30.07,10.0,South,6.9,-,N/A,,Mostly Cloudy,180,2014-02-19 07:03:00
1:20 AM,64.0,62.1,93,30.05,10.0,South,8.1,-,N/A,,Scattered Clouds,170,2014-02-19 07:20:00
1:53 AM,64.0,62.1,93,30.04,10.0,SSW,4.6,-,N/A,,Scattered Clouds,200,2014-02-19 07:53:00
2:04 AM,64.9,62.1,90,30.05,10.0,SSW,4.6,-,N/A,,Mostly Cloudy,210,2014-02-19 08:04:00
2:13 AM,64.9,62.1,90,30.05,10.0,SW,3.5,-,N/A,,Overcast,220,2014-02-19 08:13:00
2:53 AM,66.0,62.1,87,30.05,10.0,SSW,5.8,-,N/A,,Overcast,210,2014-02-19 08:53:00
3:06 AM,64.9,62.1,90,30.06,10.0,SSW,5.8,-,N/A,,Overcast,210,2014-02-19 09:06:00
3:13 AM,64.9,61.0,87,30.06,10.0,SSW,5.8,-,N/A,,Mostly Cloudy,200,2014-02-19 09:13:00
3:21 AM,64.9,61.0,87,30.06,10.0,South,4.6,-,N/A,,Mostly Cloudy,190,2014-02-19 09:21:00
3:28 AM,64.9,61.0,87,30.06,10.0,SW,3.5,-,N/A,,Mostly Cloudy,220,2014-02-19 09:28:00
3:53 AM,64.9,62.1,90,30.07,10.0,Calm,Calm,-,N/A,,Overcast,0,2014-02-19 09:53:00
4:00 AM,66.0,62.1,87,30.08,10.0,WNW,3.5,-,N/A,,Overcast,290,2014-02-19 10:00:00
4:49 AM,62.6,60.8,94,30.07,9.0,SSE,5.8,-,N/A,,Scattered Clouds,160,2014-02-19 10:49:00
4:53 AM,61.0,59.0,93,30.06,9.0,SSE,5.8,-,N/A,,Scattered Clouds,160,2014-02-19 10:53:00
5:49 AM,60.8,59.0,94,30.09,5.0,Calm,Calm,-,N/A,,Overcast,0,2014-02-19 11:49:00
5:53 AM,61.0,59.0,93,30.09,5.0,Calm,Calm,-,N/A,,Overcast,0,2014-02-19 11:53:00
6:15 AM,59.0,57.0,93,30.09,2.5,SSE,3.5,-,N/A,,Mostly Cloudy,150,2014-02-19 12:15:00
6:19 AM,59.0,57.0,93,30.09,0.8,SSE,3.5,-,N/A,,Mostly Cloudy,150,2014-02-19 12:19:00
6:25 AM,59.0,57.0,93,30.09,0.2,Calm,Calm,-,N/A,Fog,Fog,0,2014-02-19 12:25:00
6:48 AM,57.2,55.4,94,30.08,1.0,SSE,4.6,-,N/A,,Mist,150,2014-02-19 12:48:00
6:53 AM,57.0,55.9,96,30.08,1.8,SSE,5.8,-,N/A,,Scattered Clouds,160,2014-02-19 12:53:00
7:08 AM,60.1,57.9,93,30.08,3.0,South,5.8,-,N/A,,Clear,170,2014-02-19 13:08:00
7:44 AM,64.0,62.1,93,30.09,7.0,South,4.6,-,N/A,,Scattered Clouds,190,2014-02-19 13:44:00
7:53 AM,64.0,62.1,93,30.08,8.0,South,6.9,-,N/A,,Scattered Clouds,170,2014-02-19 13:53:00
8:53 AM,66.9,62.1,84,30.10,10.0,SW,9.2,-,N/A,,Scattered Clouds,220,2014-02-19 14:53:00
9:04 AM,69.1,62.1,78,30.11,10.0,SSW,9.2,-,N/A,,Mostly Cloudy,200,2014-02-19 15:04:00
9:36 AM,70.0,61.0,73,30.10,10.0,South,8.1,-,N/A,,Mostly Cloudy,190,2014-02-19 15:36:00
9:53 AM,69.1,60.1,73,30.10,10.0,SW,9.2,-,N/A,,Mostly Cloudy,220,2014-02-19 15:53:00
10:13 AM,72.0,61.0,68,30.10,10.0,SW,6.9,-,N/A,,Scattered Clouds,220,2014-02-19 16:13:00
10:53 AM,72.0,60.1,66,30.09,10.0,WSW,8.1,-,N/A,,Scattered Clouds,240,2014-02-19 16:53:00
11:53 AM,75.9,57.9,54,30.06,10.0,SSW,9.2,-,N/A,,Mostly Cloudy,200,2014-02-19 17:53:00
12:53 PM,78.1,57.9,50,30.01,10.0,South,9.2,-,N/A,,Clear,190,2014-02-19 18:53:00
1:53 PM,79.0,55.0,44,29.99,10.0,SSW,8.1,-,N/A,,Mostly Cloudy,210,2014-02-19 19:53:00
2:53 PM,80.1,55.0,42,29.96,10.0,SW,11.5,-,N/A,,Scattered Clouds,220,2014-02-19 20:53:00
3:53 PM,79.0,55.9,45,29.96,10.0,South,10.4,-,N/A,,Scattered Clouds,190,2014-02-19 21:53:00
4:53 PM,77.0,55.9,48,29.96,10.0,SSW,9.2,-,N/A,,Clear,210,2014-02-19 22:53:00
5:53 PM,73.9,59.0,59,29.97,10.0,South,10.4,-,N/A,,Clear,170,2014-02-19 23:53:00
6:53 PM,71.1,62.1,73,29.99,10.0,South,11.5,-,N/A,,Clear,180,2014-02-20 00:53:00
7:53 PM,68.0,62.1,81,29.99,10.0,South,11.5,-,N/A,,Partly Cloudy,170,2014-02-20 01:53:00
8:08 PM,68.0,63.0,84,30.00,10.0,South,9.2,-,N/A,,Mostly Cloudy,170,2014-02-20 02:08:00
8:53 PM,68.0,63.0,84,30.00,10.0,SSE,10.4,-,N/A,,Overcast,160,2014-02-20 02:53:00
9:35 PM,66.9,63.0,87,30.00,10.0,SSE,10.4,-,N/A,,Scattered Clouds,160,2014-02-20 03:35:00
9:42 PM,66.9,63.0,87,30.00,10.0,SSE,8.1,-,N/A,,Mostly Cloudy,160,2014-02-20 03:42:00
9:53 PM,66.9,63.0,87,29.99,10.0,SSE,8.1,-,N/A,,Mostly Cloudy,160,2014-02-20 03:53:00
10:43 PM,68.0,63.0,84,29.99,10.0,SSE,8.1,-,N/A,,Overcast,160,2014-02-20 04:43:00
10:53 PM,68.0,63.0,84,29.98,10.0,SSE,8.1,-,N/A,,Overcast,160,2014-02-20 04:53:00
11:32 PM,68.0,63.0,84,29.98,10.0,South,9.2,-,N/A,,Overcast,170,2014-02-20 05:32:00
11:40 PM,68.0,63.0,84,29.98,10.0,South,11.5,-,N/A,,Overcast,170,2014-02-20 05:40:00
11:53 PM,68.0,63.0,84,29.97,10.0,South,11.5,-,N/A,,Overcast,170,2014-02-20 05:53:00